This is the latest recevied weather packets stored in our database for station/object IN3XSV-15. If no packets are shown the sender has not sent any weather packets the latest 10 day(s).
| Time | Temp. | Humidity | Pressure | Rain* | Wind** | Luminosity | Snow |
|---|---|---|---|---|---|---|---|
| 1777556709 | 6.11° C | 75% | 861.2 hPa | 0 mm | - | - | - |
| 1777556409 | 6.11° C | 75% | 861.2 hPa | 0 mm | - | - | - |
| 1777556109 | 5.56° C | 74% | 861 hPa | 0 mm | - | - | - |
| 1777555809 | 6.11° C | 74% | 861.1 hPa | 0 mm | - | - | - |
| 1777555509 | 6.11° C | 75% | 861.2 hPa | 0 mm | - | - | - |
| 1777555209 | 6.11° C | 74% | 861 hPa | 0 mm | - | - | - |
| 1777554909 | 6.67° C | 74% | 861.2 hPa | 0 mm | - | - | - |
| 1777554609 | 6.67° C | 75% | 861.2 hPa | 0 mm | - | - | - |
| 1777554309 | 6.67° C | 75% | 861.1 hPa | 0 mm | - | - | - |
| 1777554009 | 6.67° C | 74% | 861.1 hPa | 0 mm | - | - | - |
| 1777553709 | 6.67° C | 74% | 861.2 hPa | 0 mm | - | - | - |
| 1777553409 | 6.67° C | 74% | 861.3 hPa | 0 mm | - | - | - |
| 1777553109 | 6.67° C | 74% | 861.3 hPa | 0 mm | - | - | - |
| 1777552809 | 6.67° C | 74% | 861.3 hPa | 0 mm | - | - | - |
| 1777552509 | 7.22° C | 74% | 861.3 hPa | 0 mm | - | - | - |
| 1777552209 | 7.22° C | 75% | 861.3 hPa | 0 mm | - | - | - |
| 1777551909 | 7.22° C | 75% | 861.2 hPa | 0 mm | - | - | - |
| 1777551609 | 7.22° C | 75% | 861.4 hPa | 0 mm | - | - | - |
| 1777551309 | 7.22° C | 75% | 861.4 hPa | 0 mm | - | - | - |
| 1777551009 | 7.22° C | 75% | 861.5 hPa | 0 mm | - | - | - |
| 1777550709 | 7.22° C | 75% | 861.5 hPa | 0 mm | - | - | - |
| 1777550409 | 7.78° C | 76% | 861.3 hPa | 0 mm | - | - | - |
| 1777550109 | 7.78° C | 76% | 861.2 hPa | 0 mm | - | - | - |
| 1777549809 | 7.78° C | 76% | 861.3 hPa | 0 mm | - | - | - |
| 1777549509 | 7.22° C | 76% | 861.1 hPa | 0 mm | - | - | - |
* Rain latest hour (hover to see other rain measurements)
** Current wind speed in m/s (hover to see current wind gust speed)